When you browse on this site, cookies collect data to enhance your experience and personalize the content and advertising you see.
Visit our Privacy Policy to learn more. By continuing to use the site, you agree to this use of cookies and data.

Stündliche Wetter Cayo Carenero

Heute, 4 Juli, Samstag

Zeit Temperatur Niederschläge Wind Luftdruck Luftfeuchtigkeit
00:00 +28°C° 0.6 mm 3 m/S 758 mmHg 85%
01:00 +28°C° 0.6 mm 3 m/S 758 mmHg 84%
02:00 +28°C° 0.8 mm 3 m/S 757 mmHg 85%
03:00 +28°C° 0.8 mm 3 m/S 757 mmHg 85%
04:00 +28°C° 0.8 mm 3 m/S 757 mmHg 85%
05:00 +28°C° 0.3 mm 3 m/S 757 mmHg 84%
06:00 +28°C° 0.3 mm 4 m/S 757 mmHg 84%
07:00 +28°C° 0.3 mm 4 m/S 757 mmHg 83%
08:00 +29°C° 0.3 mm 4 m/S 758 mmHg 79%
09:00 +30°C° 0.3 mm 4 m/S 758 mmHg 75%
10:00 +32°C° 0.3 mm 4 m/S 758 mmHg 71%
11:00 +32°C° 0.1 mm 4 m/S 758 mmHg 71%
12:00 +33°C° 0.1 mm 5 m/S 758 mmHg 70%
13:00 +33°C° 0.1 mm 5 m/S 757 mmHg 69%
14:00 +33°C° 0.3 mm 5 m/S 757 mmHg 71%
15:00 +32°C° 0.3 mm 5 m/S 756 mmHg 72%
16:00 +32°C° 0.3 mm 5 m/S 756 mmHg 74%
17:00 +30°C° 1.3 mm 4 m/S 756 mmHg 77%
18:00 +30°C° 1.3 mm 4 m/S 756 mmHg 81%
19:00 +29°C° 1.3 mm 4 m/S 757 mmHg 84%
20:00 +29°C° 1.1 mm 3 m/S 757 mmHg 84%
21:00 +28°C° 1.1 mm 3 m/S 758 mmHg 84%
22:00 +28°C° 1.1 mm 2 m/S 758 mmHg 84%
23:00 +28°C° 0.1 mm 3 m/S 758 mmHg 84%

Morgen, 5 Juli, Sonntag

Zeit Temperatur Niederschläge Wind Luftdruck Luftfeuchtigkeit
00:00 +28°C° 0.1 mm 3 m/S 758 mmHg 84%
01:00 +28°C° 0.1 mm 4 m/S 757 mmHg 83%
02:00 +28°C° 0.1 mm 3 m/S 757 mmHg 83%
03:00 +27°C° 0.1 mm 3 m/S 757 mmHg 83%
04:00 +27°C° 0.1 mm 3 m/S 756 mmHg 84%
05:00 +27°C° 0.1 mm 3 m/S 757 mmHg 83%
06:00 +27°C° 0.1 mm 3 m/S 757 mmHg 82%
07:00 +27°C° 0.1 mm 2 m/S 757 mmHg 82%
08:00 +28°C° 0 mm 2 m/S 758 mmHg 77%
09:00 +30°C° 0 mm 1 m/S 758 mmHg 72%
10:00 +31°C° 0 mm 1 m/S 758 mmHg 68%
11:00 +31°C° 0.1 mm 1 m/S 758 mmHg 68%
12:00 +31°C° 0.1 mm 2 m/S 758 mmHg 68%
13:00 +32°C° 0.1 mm 2 m/S 758 mmHg 67%
14:00 +31°C° 0.3 mm 2 m/S 757 mmHg 70%
15:00 +31°C° 0.3 mm 2 m/S 757 mmHg 73%
16:00 +30°C° 0.3 mm 2 m/S 756 mmHg 76%
17:00 +30°C° 0.8 mm 1 m/S 757 mmHg 78%
18:00 +29°C° 0.8 mm 1 m/S 757 mmHg 81%
19:00 +29°C° 0.8 mm 1 m/S 757 mmHg 83%
20:00 +29°C° 0.4 mm 1 m/S 758 mmHg 83%
21:00 +28°C° 0.4 mm 1 m/S 758 mmHg 83%
22:00 +28°C° 0.4 mm 1 m/S 758 mmHg 83%
23:00 +28°C° 0.4 mm 1 m/S 758 mmHg 84%

übermorgen, 6 Juli, Montag

Zeit Temperatur Niederschläge Wind Luftdruck Luftfeuchtigkeit
00:00 +28°C° 0.4 mm 1 m/S 758 mmHg 85%
01:00 +28°C° 0.4 mm 1 m/S 758 mmHg 86%
02:00 +28°C° 0.6 mm 1 m/S 758 mmHg 85%
03:00 +28°C° 0.6 mm 1 m/S 758 mmHg 85%
04:00 +28°C° 0.6 mm 1 m/S 757 mmHg 85%
05:00 +28°C° 0.4 mm 1 m/S 758 mmHg 85%
06:00 +28°C° 0.4 mm 1 m/S 758 mmHg 85%
07:00 +28°C° 0.4 mm 1 m/S 759 mmHg 84%
08:00 +28°C° 0.4 mm 1 m/S 759 mmHg 82%
09:00 +29°C° 0.4 mm 1 m/S 759 mmHg 79%
10:00 +30°C° 0.4 mm 1 m/S 760 mmHg 77%
11:00 +30°C° 0.2 mm 2 m/S 759 mmHg 76%
12:00 +31°C° 0.2 mm 2 m/S 759 mmHg 75%
13:00 +31°C° 0.2 mm 2 m/S 759 mmHg 74%
14:00 +31°C° 0.8 mm 3 m/S 758 mmHg 74%
15:00 +31°C° 0.8 mm 3 m/S 758 mmHg 74%
16:00 +31°C° 0.8 mm 3 m/S 758 mmHg 74%
17:00 +30°C° 0.9 mm 3 m/S 758 mmHg 76%
18:00 +29°C° 0.9 mm 2 m/S 758 mmHg 78%
19:00 +29°C° 0.9 mm 2 m/S 758 mmHg 81%
20:00 +28°C° 0.3 mm 2 m/S 759 mmHg 82%
21:00 +28°C° 0.3 mm 2 m/S 759 mmHg 82%
22:00 +28°C° 0.3 mm 2 m/S 759 mmHg 83%
23:00 +28°C° 0.2 mm 2 m/S 759 mmHg 83%

7 Juli, Dienstag

Zeit Temperatur Niederschläge Wind Luftdruck Luftfeuchtigkeit
00:00 +27°C° 0.2 mm 2 m/S 759 mmHg 83%
01:00 +27°C° 0.2 mm 2 m/S 759 mmHg 84%
02:00 +27°C° 0.1 mm 2 m/S 759 mmHg 83%
03:00 +27°C° 0.1 mm 2 m/S 758 mmHg 83%
04:00 +26°C° 0.1 mm 2 m/S 758 mmHg 83%
05:00 +26°C° 0.4 mm 2 m/S 758 mmHg 82%
06:00 +26°C° 0.4 mm 2 m/S 758 mmHg 82%
07:00 +26°C° 0.4 mm 2 m/S 759 mmHg 81%
08:00 +27°C° 0.5 mm 2 m/S 759 mmHg 78%
09:00 +28°C° 0.5 mm 3 m/S 759 mmHg 75%
10:00 +29°C° 0.5 mm 3 m/S 760 mmHg 71%
11:00 +30°C° 0.3 mm 3 m/S 759 mmHg 71%
12:00 +30°C° 0.3 mm 3 m/S 759 mmHg 71%
13:00 +30°C° 0.3 mm 3 m/S 759 mmHg 71%
14:00 +30°C° 0.1 mm 3 m/S 758 mmHg 71%
15:00 +30°C° 0.1 mm 3 m/S 758 mmHg 72%
16:00 +30°C° 0.1 mm 3 m/S 757 mmHg 72%
17:00 +30°C° 0 mm 3 m/S 757 mmHg 75%
18:00 +29°C° 0 mm 3 m/S 757 mmHg 78%
19:00 +29°C° 0 mm 3 m/S 758 mmHg 81%
20:00 +28°C° 0.1 mm 3 m/S 758 mmHg 82%
21:00 +28°C° 0.1 mm 3 m/S 759 mmHg 83%
22:00 +28°C° 0.1 mm 3 m/S 759 mmHg 83%
23:00 +27°C° 0.4 mm 3 m/S 759 mmHg 82%

8 Juli, Mittwoch

Zeit Temperatur Niederschläge Wind Luftdruck Luftfeuchtigkeit
00:00 +27°C° 0.4 mm 3 m/S 758 mmHg 81%
01:00 +27°C° 0.4 mm 3 m/S 758 mmHg 80%
02:00 +27°C° 0.2 mm 3 m/S 758 mmHg 78%
03:00 +26°C° 0.2 mm 3 m/S 757 mmHg 77%
04:00 +26°C° 0.2 mm 3 m/S 757 mmHg 75%
05:00 +26°C° 0 mm 3 m/S 757 mmHg 73%
06:00 +26°C° 0 mm 2 m/S 757 mmHg 71%
07:00 +26°C° 0 mm 2 m/S 758 mmHg 69%
08:00 +28°C° 0 mm 3 m/S 758 mmHg 65%
09:00 +29°C° 0 mm 3 m/S 758 mmHg 62%
10:00 +30°C° 0 mm 3 m/S 758 mmHg 58%
11:00 +32°C° 0.3 mm 4 m/S 758 mmHg 63%
12:00 +32°C° 0.3 mm 5 m/S 758 mmHg 68%
13:00 +32°C° 0.3 mm 5 m/S 758 mmHg 73%
14:00 +30°C° 0.9 mm 5 m/S 757 mmHg 78%
15:00 +29°C° 0.9 mm 5 m/S 757 mmHg 83%
16:00 +28°C° 0.9 mm 5 m/S 756 mmHg 87%
17:00 +28°C° 1.1 mm 4 m/S 756 mmHg 88%
18:00 +28°C° 1.1 mm 4 m/S 756 mmHg 88%
19:00 +28°C° 1.1 mm 4 m/S 757 mmHg 88%
20:00 +28°C° 1.3 mm 4 m/S 757 mmHg 89%
21:00 +27°C° 1.3 mm 4 m/S 758 mmHg 89%
22:00 +27°C° 1.3 mm 4 m/S 758 mmHg 90%
23:00 +27°C° 0.7 mm 3 m/S 758 mmHg 90%

9 Juli, Donnerstag

Zeit Temperatur Niederschläge Wind Luftdruck Luftfeuchtigkeit
00:00 +27°C° 0.7 mm 3 m/S 757 mmHg 90%
01:00 +27°C° 0.7 mm 3 m/S 757 mmHg 89%
02:00 +27°C° 0.7 mm 2 m/S 757 mmHg 88%
03:00 +27°C° 0.7 mm 2 m/S 756 mmHg 87%
04:00 +27°C° 0.7 mm 2 m/S 756 mmHg 85%
05:00 +27°C° 0.1 mm 1 m/S 756 mmHg 85%
06:00 +27°C° 0.1 mm 1 m/S 757 mmHg 85%
07:00 +27°C° 0.1 mm 1 m/S 757 mmHg 84%
08:00 +28°C° 0 mm 1 m/S 757 mmHg 81%
09:00 +29°C° 0 mm 2 m/S 757 mmHg 78%
10:00 +30°C° 0 mm 2 m/S 758 mmHg 76%
11:00 +30°C° 0 mm 2 m/S 758 mmHg 73%
12:00 +31°C° 0 mm 2 m/S 757 mmHg 70%
13:00 +32°C° 0 mm 2 m/S 757 mmHg 68%
14:00 +31°C° 0.3 mm 2 m/S 757 mmHg 71%
15:00 +30°C° 0.3 mm 2 m/S 756 mmHg 75%
16:00 +30°C° 0.3 mm 2 m/S 756 mmHg 78%
17:00 +29°C° 0.3 mm 1 m/S 756 mmHg 80%
18:00 +29°C° 0.3 mm 1 m/S 756 mmHg 82%
19:00 +26°C° 0.3 mm 0 m/S 757 mmHg 84%
20:00 +28°C° 0.2 mm 1 m/S 757 mmHg 85%
21:00 +28°C° 0.2 mm 1 m/S 758 mmHg 85%
22:00 +28°C° 0.2 mm 1 m/S 758 mmHg 86%
23:00 +28°C° 1.2 mm 2 m/S 758 mmHg 87%
Mehr zeigen